Precipitable_Water
1.32 1.39 1.45 1.45 1.51 1.66 1.67 1.71 1.74 1.77 1.78 1.75 1.70 1.71 1.69 1.67 1.66 1.66 1.64 1.64 1.61 1.60 1.60 1.56 1.49 1.47 1.42 1.41 1.41 1.41 1.38 1.36 1.37 1.37 1.40 1.44 1.47 1.51 1.50 1.49 1.47 1.49 1.50 1.48 1.54 1.57 1.62 1.63 1.65 1.67 1.67 1.62 1.60 1.63 1.64 1.69 1.72 1.75 1.75 1.73 1.71 1.76 1.74
1.26 1.29 1.32 1.40 1.47 1.51 1.66 1.71 1.77 1.78 1.79 1.75 1.76 1.75 1.72 1.69 1.68 1.65 1.65 1.66 1.65 1.63 1.63 1.61 1.54 1.48 1.45 1.44 1.47 1.45 1.38 1.33 1.34 1.36 1.39 1.41 1.46 1.50 1.53 1.51 1.48 1.49 1.49 1.49 1.56 1.61 1.61 1.61 1.61 1.60 1.60 1.61 1.55 1.60 1.61 1.62 1.66 1.68 1.71 1.69 1.66 1.68 1.69
1.22 1.27 1.32 1.34 1.34 1.42 1.61 1.75 1.79 1.81 1.83 1.82 1.79 1.78 1.76 1.74 1.73 1.70 1.69 1.67 1.66 1.66 1.68 1.65 1.61 1.54 1.51 1.50 1.47 1.46 1.44 1.39 1.31 1.27 1.26 1.31 1.38 1.42 1.50 1.52 1.50 1.49 1.50 1.48 1.50 1.58 1.61 1.57 1.57 1.56 1.55 1.56 1.54 1.54 1.57 1.58 1.59 1.62 1.64 1.68 1.64 1.64 1.64
1.16 1.23 1.29 1.37 1.41 1.48 1.54 1.65 1.77 1.82 1.88 1.87 1.84 1.84 1.79 1.79 1.80 1.81 1.79 1.75 1.71 1.68 1.65 1.67 1.66 1.61 1.58 1.52 1.49 1.47 1.45 1.43 1.36 1.27 1.24 1.28 1.35 1.42 1.46 1.47 1.48 1.48 1.47 1.47 1.49 1.49 1.54 1.55 1.54 1.51 1.50 1.50 1.50 1.55 1.56 1.54 1.56 1.56 1.58 1.59 1.58 1.61 1.61
1.12 1.19 1.24 1.29 1.35 1.43 1.53 1.61 1.72 1.83 1.88 1.91 1.88 1.88 1.86 1.83 1.83 1.80 1.79 1.79 1.79 1.75 1.74 1.73 1.72 1.71 1.67 1.63 1.56 1.53 1.48 1.46 1.43 1.37 1.28 1.26 1.31 1.40 1.39 1.40 1.43 1.42 1.44 1.47 1.50 1.49 1.48 1.51 1.51 1.50 1.49 1.46 1.46 1.49 1.52 1.51 1.50 1.53 1.53 1.53 1.52 1.56 1.56
1.10 1.09 1.14 1.20 1.27 1.36 1.48 1.56 1.65 1.77 1.84 1.87 1.88 1.88 1.89 1.89 1.87 1.81 1.81 1.78 1.75 1.80 1.84 1.90 1.85 1.78 1.72 1.69 1.64 1.57 1.57 1.54 1.51 1.47 1.37 1.28 1.26 1.29 1.32 1.36 1.39 1.40 1.38 1.40 1.48 1.48 1.49 1.47 1.44 1.46 1.45 1.45 1.39 1.43 1.45 1.45 1.44 1.46 1.47 1.47 1.46 1.50 1.49
1.09 1.14 1.13 1.14 1.18 1.26 1.39 1.51 1.58 1.69 1.81 1.89 1.93 1.91 1.91 1.90 1.88 1.87 1.87 1.82 1.81 1.77 1.78 1.78 1.88 1.84 1.78 1.79 1.71 1.65 1.58 1.55 1.51 1.47 1.43 1.33 1.27 1.25 1.29 1.35 1.37 1.37 1.37 1.40 1.39 1.45 1.46 1.45 1.42 1.44 1.45 1.42 1.42 1.39 1.42 1.43 1.40 1.42 1.43 1.43 1.42 1.43 1.45
1.11 1.13 1.16 1.15 1.17 1.20 1.29 1.42 1.50 1.60 1.71 1.81 1.87 1.89 1.88 1.89 1.90 1.89 1.85 1.84 1.83 1.78 1.76 1.73 1.77 1.76 1.77 1.82 1.78 1.69 1.64 1.59 1.57 1.52 1.47 1.37 1.31 1.24 1.26 1.31 1.34 1.36 1.34 1.29 1.33 1.38 1.39 1.41 1.42 1.42 1.42 1.39 1.38 1.39 1.40 1.42 1.38 1.39 1.39 1.38 1.37 1.39 1.44
1.10 1.15 1.16 1.18 1.18 1.21 1.26 1.34 1.40 1.46 1.53 1.65 1.76 1.82 1.91 1.92 1.89 1.89 1.86 1.83 1.83 1.81 1.78 1.74 1.71 1.75 1.71 1.71 1.68 1.65 1.67 1.65 1.57 1.53 1.46 1.39 1.34 1.28 1.23 1.25 1.29 1.34 1.29 1.23 1.25 1.31 1.33 1.35 1.36 1.39 1.40 1.36 1.35 1.38 1.37 1.39 1.38 1.36 1.36 1.36 1.35 1.33 1.36
1.06 1.10 1.14 1.18 1.22 1.21 1.26 1.30 1.35 1.39 1.43 1.50 1.61 1.71 1.77 1.87 1.91 1.91 1.90 1.91 1.89 1.82 1.84 1.85 1.85 1.81 1.76 1.73 1.69 1.64 1.62 1.61 1.59 1.54 1.50 1.41 1.37 1.32 1.29 1.25 1.26 1.28 1.25 1.23 1.20 1.20 1.26 1.28 1.30 1.32 1.33 1.32 1.30 1.32 1.34 1.34 1.35 1.35 1.34 1.34 1.33 1.31 1.31
1.03 1.07 1.10 1.14 1.15 1.17 1.20 1.25 1.28 1.32 1.38 1.42 1.47 1.60 1.70 1.78 1.89 1.92 1.98 1.97 1.91 1.86 1.88 1.88 1.88 1.84 1.80 1.78 1.74 1.70 1.63 1.58 1.57 1.53 1.50 1.46 1.43 1.36 1.35 1.31 1.27 1.26 1.20 1.20 1.17 1.16 1.19 1.22 1.23 1.23 1.25 1.23 1.21 1.24 1.27 1.29 1.33 1.31 1.31 1.33 1.35 1.32 1.30
1.00 1.03 1.04 1.08 1.11 1.16 1.16 1.18 1.25 1.30 1.36 1.41 1.45 1.50 1.61 1.70 1.81 1.95 1.94 1.96 1.98 1.90 1.90 1.93 1.91 1.84 1.77 1.72 1.69 1.72 1.67 1.61 1.58 1.54 1.52 1.51 1.49 1.44 1.40 1.37 1.31 1.27 1.22 1.16 1.13 1.12 1.13 1.16 1.18 1.15 1.15 1.17 1.16 1.18 1.23 1.26 1.27 1.27 1.26 1.27 1.30 1.30 1.27
0.92 0.94 0.96 0.98 1.01 1.06 1.11 1.17 1.20 1.25 1.31 1.38 1.43 1.47 1.52 1.59 1.69 1.78 1.93 1.94 1.97 1.97 1.93 1.93 1.92 1.89 1.81 1.77 1.72 1.72 1.68 1.63 1.60 1.60 1.58 1.58 1.55 1.54 1.49 1.42 1.37 1.31 1.25 1.21 1.14 1.10 1.08 1.09 1.10 1.11 1.10 1.12 1.11 1.10 1.14 1.19 1.20 1.20 1.20 1.19 1.22 1.25 1.24
0.85 0.87 0.90 0.93 0.96 1.02 1.06 1.12 1.17 1.22 1.28 1.34 1.39 1.46 1.49 1.55 1.63 1.69 1.78 1.88 1.97 2.00 1.97 1.95 1.94 1.90 1.84 1.78 1.73 1.68 1.66 1.65 1.66 1.66 1.65 1.64 1.64 1.61 1.56 1.53 1.48 1.41 1.36 1.32 1.22 1.15 1.09 1.06 1.06 1.07 1.04 1.02 1.04 1.06 1.09 1.12 1.14 1.14 1.14 1.14 1.14 1.15 1.16
0.77 0.79 0.81 0.84 0.89 0.95 1.01 1.07 1.14 1.17 1.21 1.31 1.38 1.41 1.45 1.48 1.56 1.66 1.72 1.81 1.90 1.95 1.97 2.00 1.97 1.92 1.88 1.86 1.80 1.74 1.72 1.71 1.68 1.69 1.70 1.68 1.65 1.63 1.60 1.58 1.56 1.54 1.49 1.42 1.33 1.27 1.21 1.15 1.10 1.06 1.03 1.00 0.98 0.97 1.01 1.03 1.06 1.08 1.09 1.07 1.05 1.06 1.05
0.72 0.75 0.77 0.79 0.83 0.87 0.92 0.99 1.06 1.14 1.20 1.22 1.26 1.31 1.39 1.43 1.48 1.57 1.65 1.76 1.85 1.91 1.95 1.98 1.99 1.99 1.94 1.89 1.87 1.86 1.83 1.78 1.74 1.68 1.67 1.68 1.65 1.64 1.63 1.62 1.61 1.59 1.55 1.50 1.46 1.40 1.34 1.27 1.20 1.12 1.06 1.01 0.99 0.96 0.94 0.94 0.96 1.00 1.00 1.01 1.00 1.00 0.96
0.71 0.71 0.73 0.77 0.81 0.82 0.86 0.90 0.96 1.03 1.10 1.17 1.22 1.24 1.28 1.33 1.40 1.50 1.59 1.69 1.80 1.88 1.93 1.96 1.96 1.98 1.98 1.94 1.94 1.94 1.94 1.88 1.83 1.80 1.73 1.71 1.69 1.67 1.66 1.63 1.62 1.60 1.58 1.56 1.53 1.49 1.45 1.39 1.29 1.20 1.13 1.06 1.02 0.98 0.94 0.91 0.90 0.90 0.89 0.87 0.87 0.90 0.97
0.69 0.70 0.71 0.73 0.76 0.79 0.81 0.84 0.88 0.93 1.00 1.07 1.12 1.15 1.18 1.23 1.30 1.38 1.46 1.59 1.72 1.86 1.94 1.95 1.96 1.97 2.00 2.01 2.02 1.99 1.97 1.96 1.92 1.86 1.80 1.75 1.70 1.68 1.69 1.68 1.64 1.60 1.58 1.57 1.54 1.54 1.53 1.46 1.39 1.33 1.25 1.17 1.09 1.03 0.99 0.95 0.92 0.88 0.84 0.81 0.80 0.82 0.84
0.68 0.70 0.70 0.72 0.74 0.77 0.79 0.82 0.86 0.90 0.93 0.98 1.04 1.07 1.11 1.14 1.18 1.27 1.39 1.47 1.60 1.78 1.88 1.93 1.95 1.98 2.01 2.05 2.02 2.04 2.05 2.00 1.93 1.87 1.83 1.80 1.78 1.76 1.73 1.70 1.65 1.61 1.58 1.55 1.57 1.57 1.54 1.48 1.45 1.41 1.38 1.30 1.19 1.09 1.04 0.99 0.96 0.91 0.86 0.82 0.80 0.80 0.82
0.65 0.68 0.69 0.71 0.73 0.74 0.77 0.81 0.85 0.89 0.92 0.96 0.99 1.02 1.08 1.11 1.12 1.19 1.31 1.41 1.52 1.63 1.75 1.87 1.93 1.96 1.99 2.04 2.05 2.12 2.13 2.09 2.01 1.93 1.86 1.83 1.82 1.81 1.76 1.71 1.66 1.64 1.64 1.62 1.62 1.58 1.52 1.51 1.48 1.46 1.43 1.39 1.32 1.24 1.18 1.11 1.04 0.97 0.90 0.84 0.82 0.81 0.82
0.62 0.62 0.62 0.65 0.67 0.69 0.71 0.73 0.77 0.83 0.86 0.92 0.96 0.99 1.03 1.04 1.06 1.14 1.22 1.30 1.39 1.50 1.62 1.76 1.85 1.90 1.94 1.99 2.05 2.08 2.10 2.10 2.10 1.99 1.94 1.89 1.86 1.82 1.76 1.72 1.70 1.69 1.68 1.64 1.60 1.57 1.53 1.50 1.49 1.49 1.47 1.44 1.41 1.35 1.28 1.24 1.19 1.12 1.03 0.95 0.89 0.86 0.85
0.63 0.62 0.60 0.60 0.60 0.63 0.66 0.67 0.69 0.71 0.76 0.86 0.90 0.94 0.95 0.95 1.02 1.05 1.11 1.23 1.29 1.37 1.46 1.59 1.72 1.80 1.86 1.92 2.00 2.03 2.06 2.06 2.06 2.04 2.00 1.96 1.92 1.87 1.81 1.79 1.75 1.70 1.71 1.69 1.64 1.63 1.61 1.59 1.56 1.51 1.48 1.48 1.47 1.42 1.34 1.31 1.28 1.23 1.17 1.12 1.08 1.06 1.04
0.61 0.62 0.62 0.62 0.61 0.60 0.62 0.64 0.63 0.66 0.69 0.72 0.78 0.85 0.88 0.92 0.96 0.97 1.00 1.08 1.18 1.25 1.32 1.39 1.46 1.57 1.70 1.81 1.92 1.99 2.04 2.05 2.06 2.06 2.02 2.02 1.94 1.94 1.89 1.85 1.81 1.81 1.82 1.74 1.69 1.63 1.58 1.56 1.56 1.57 1.53 1.51 1.51 1.46 1.40 1.36 1.36 1.31 1.26 1.22 1.21 1.20 1.18
0.62 0.61 0.61 0.60 0.61 0.61 0.61 0.62 0.62 0.62 0.63 0.64 0.65 0.70 0.79 0.86 0.88 0.89 0.92 0.96 1.00 1.08 1.17 1.24 1.30 1.39 1.47 1.56 1.73 1.91 1.99 2.05 2.08 2.07 2.07 2.04 1.98 1.98 1.98 1.97 1.97 1.91 1.94 1.83 1.75 1.67 1.64 1.63 1.60 1.61 1.59 1.55 1.51 1.49 1.43 1.40 1.42 1.39 1.34 1.30 1.29 1.28 1.25
0.59 0.60 0.59 0.59 0.58 0.57 0.59 0.61 0.62 0.63 0.62 0.61 0.60 0.63 0.66 0.71 0.77 0.81 0.82 0.88 0.94 0.98 1.01 1.09 1.18 1.26 1.36 1.45 1.53 1.63 1.81 1.95 2.03 2.05 2.08 2.05 2.06 2.05 2.03 2.05 2.09 2.10 2.05 1.95 1.92 1.81 1.80 1.71 1.65 1.63 1.62 1.59 1.55 1.52 1.46 1.42 1.44 1.43 1.38 1.35 1.34 1.33 1.32
0.55 0.56 0.57 0.57 0.57 0.56 0.56 0.58 0.59 0.58 0.58 0.58 0.61 0.64 0.64 0.63 0.65 0.69 0.75 0.79 0.85 0.91 0.95 1.02 1.08 1.14 1.23 1.36 1.46 1.52 1.58 1.65 1.78 1.93 2.03 2.04 2.08 2.10 2.14 2.16 2.07 2.09 2.09 2.08 2.00 1.89 1.85 1.85 1.77 1.65 1.62 1.63 1.60 1.55 1.50 1.44 1.44 1.45 1.39 1.38 1.37 1.36 1.37
0.53 0.54 0.53 0.54 0.54 0.57 0.54 0.54 0.53 0.53 0.54 0.56 0.60 0.63 0.64 0.65 0.62 0.61 0.64 0.70 0.74 0.79 0.87 0.97 1.05 1.11 1.14 1.18 1.27 1.38 1.49 1.59 1.60 1.61 1.72 1.87 2.00 2.10 2.15 2.10 2.07 2.06 1.97 1.96 1.94 1.91 1.87 1.85 1.79 1.72 1.68 1.68 1.66 1.62 1.58 1.53 1.47 1.47 1.42 1.40 1.40 1.40 1.39
0.50 0.51 0.52 0.53 0.54 0.54 0.53 0.52 0.52 0.52 0.52 0.55 0.56 0.58 0.60 0.62 0.61 0.62 0.62 0.62 0.65 0.71 0.80 0.87 0.95 1.02 1.08 1.11 1.14 1.20 1.29 1.42 1.55 1.61 1.62 1.65 1.71 1.78 1.90 2.02 2.08 2.04 2.03 2.04 2.00 1.95 1.91 1.86 1.75 1.72 1.70 1.72 1.70 1.66 1.63 1.62 1.55 1.51 1.47 1.43 1.42 1.42 1.42
0.44 0.44 0.45 0.46 0.47 0.49 0.49 0.48 0.48 0.48 0.51 0.53 0.55 0.57 0.57 0.58 0.58 0.60 0.62 0.60 0.62 0.67 0.71 0.76 0.83 0.91 0.98 1.04 1.08 1.11 1.18 1.25 1.34 1.45 1.56 1.59 1.63 1.65 1.66 1.78 1.90 2.01 2.04 2.01 1.97 1.94 1.93 1.90 1.82 1.71 1.65 1.65 1.69 1.71 1.68 1.67 1.65 1.57 1.53 1.47 1.45 1.45 1.44
0.43 0.43 0.43 0.44 0.44 0.45 0.47 0.47 0.48 0.47 0.48 0.49 0.53 0.55 0.57 0.57 0.55 0.57 0.58 0.59 0.66 0.66 0.65 0.66 0.72 0.79 0.86 0.92 0.99 1.02 1.07 1.17 1.24 1.32 1.40 1.49 1.56 1.59 1.59 1.67 1.78 1.86 1.97 2.02 1.99 1.93 1.91 1.97 1.95 1.87 1.78 1.71 1.68 1.69 1.70 1.70 1.69 1.66 1.59 1.54 1.50 1.49 1.48
0.39 0.39 0.40 0.40 0.41 0.43 0.44 0.45 0.45 0.46 0.46 0.48 0.49 0.52 0.54 0.56 0.54 0.55 0.55 0.60 0.64 0.63 0.62 0.62 0.63 0.67 0.74 0.82 0.89 0.94 0.99 1.05 1.13 1.20 1.29 1.37 1.43 1.48 1.52 1.57 1.68 1.74 1.85 1.90 1.95 1.98 1.95 1.98 2.00 1.91 1.83 1.79 1.74 1.73 1.77 1.77 1.77 1.73 1.69 1.62 1.56 1.54 1.53
0.39 0.40 0.39 0.39 0.39 0.40 0.42 0.43 0.44 0.45 0.45 0.46 0.50 0.51 0.53 0.54 0.55 0.52 0.55 0.61 0.62 0.62 0.61 0.62 0.61 0.61 0.64 0.71 0.79 0.86 0.92 0.94 0.99 1.08 1.16 1.26 1.35 1.38 1.43 1.50 1.57 1.62 1.74 1.84 1.88 1.92 1.97 2.01 2.04 2.00 1.93 1.85 1.82 1.78 1.80 1.86 1.85 1.83 1.82 1.74 1.66 1.61 1.59
0.39 0.39 0.38 0.37 0.38 0.39 0.39 0.40 0.40 0.42 0.45 0.45 0.48 0.51 0.52 0.52 0.53 0.54 0.56 0.59 0.61 0.62 0.60 0.59 0.60 0.61 0.62 0.63 0.69 0.77 0.83 0.86 0.90 0.97 1.03 1.09 1.20 1.29 1.34 1.41 1.47 1.53 1.59 1.71 1.84 1.89 1.92 1.98 2.04 2.01 1.96 1.90 1.88 1.87 1.85 1.86 1.90 1.91 1.85 1.94 1.84 1.73 1.69
0.40 0.40 0.40 0.41 0.40 0.40 0.40 0.40 0.39 0.40 0.42 0.44 0.48 0.50 0.52 0.53 0.52 0.52 0.54 0.56 0.58 0.58 0.58 0.57 0.57 0.58 0.61 0.64 0.66 0.68 0.74 0.78 0.84 0.89 0.94 1.01 1.12 1.20 1.27 1.33 1.40 1.45 1.49 1.56 1.65 1.79 1.90 1.96 2.01 2.05 2.10 2.01 1.97 1.99 1.95 1.90 1.81 1.77 1.84 1.93 1.91 1.91 1.82
0.42 0.42 0.42 0.42 0.42 0.43 0.40 0.39 0.39 0.40 0.40 0.42 0.46 0.48 0.49 0.51 0.53 0.53 0.52 0.53 0.55 0.56 0.56 0.56 0.58 0.60 0.60 0.63 0.66 0.65 0.69 0.73 0.75 0.83 0.90 0.96 1.05 1.15 1.23 1.26 1.31 1.36 1.42 1.53 1.62 1.68 1.75 1.89 2.04 2.11 2.11 2.03 2.01 1.99 1.93 1.90 1.82 1.78 1.93 2.05 2.07 2.01 2.00
0.40 0.41 0.41 0.42 0.42 0.42 0.42 0.42 0.41 0.40 0.40 0.42 0.45 0.47 0.48 0.50 0.52 0.54 0.55 0.54 0.54 0.55 0.54 0.54 0.55 0.56 0.58 0.60 0.61 0.64 0.67 0.69 0.73 0.77 0.84 0.89 0.95 1.02 1.09 1.24 1.32 1.33 1.29 1.31 1.46 1.57 1.64 1.72 1.75 1.96 2.15 2.13 2.11 2.11 2.03 2.00 2.06 2.06 2.05 2.13 2.18 2.14 2.11
0.37 0.38 0.40 0.41 0.41 0.41 0.41 0.41 0.43 0.42 0.42 0.44 0.47 0.48 0.50 0.51 0.52 0.53 0.55 0.56 0.56 0.56 0.55 0.55 0.54 0.52 0.51 0.55 0.58 0.62 0.66 0.67 0.67 0.71 0.76 0.84 0.90 0.96 1.00 1.08 1.21 1.29 1.29 1.29 1.32 1.38 1.44 1.51 1.64 1.76 1.87 1.99 1.98 2.09 2.17 2.11 2.07 2.03 2.04 2.07 2.15 2.23 2.18
0.37 0.38 0.39 0.41 0.42 0.42 0.42 0.43 0.44 0.44 0.44 0.47 0.48 0.49 0.51 0.52 0.53 0.54 0.55 0.56 0.57 0.57 0.55 0.55 0.53 0.49 0.49 0.52 0.57 0.61 0.63 0.65 0.67 0.69 0.71 0.75 0.84 0.90 0.94 1.00 1.06 1.11 1.23 1.28 1.30 1.35 1.41 1.46 1.54 1.65 1.75 1.81 1.85 1.85 1.89 1.98 2.00 2.02 2.05 2.08 2.13 2.18 2.16
Wind_Speed
11 13 15 16 17 17 18 19 20 20 21 21 21 22 22 22 22 21 21 21 21 20 20 19 19 19 19 18 18 17 17 18 18 18 17 16 16 16 16 16 16 15 14 13 12 12 12 11 10 9 9 8 8 8 8 7 7 7 6 6 6 6 6
11 10 11 13 15 17 17 19 20 20 21 21 21 21 22 22 22 22 22 21 21 21 21 20 20 20 19 18 18 18 18 18 18 18 18 17 17 17 17 16 16 16 15 14 13 12 12 12 11 10 9 9 9 9 9 8 8 8 7 7 6 6 6
10 10 10 10 11 13 15 18 20 20 20 21 21 21 21 22 22 23 22 22 22 22 21 21 21 20 20 19 19 19 18 18 18 18 19 18 18 17 17 17 17 17 16 15 14 13 13 12 12 11 10 10 10 10 9 9 9 8 8 7 7 6 6
9 9 9 9 10 11 13 16 18 20 20 21 21 21 21 22 22 22 23 22 22 23 22 22 22 21 21 20 20 19 19 19 19 19 19 19 19 18 18 18 17 17 17 16 15 14 14 13 13 12 11 11 10 10 10 10 9 9 9 8 7 7 6
9 9 9 9 10 11 13 15 17 19 20 21 21 21 21 22 22 22 23 23 22 23 23 23 22 22 22 21 21 20 20 20 20 19 19 19 20 19 19 19 18 18 17 17 16 16 15 14 13 12 12 12 11 11 11 11 10 10 9 9 8 7 7
10 9 9 9 9 10 11 13 16 17 19 20 20 21 21 21 22 22 22 22 22 22 23 23 23 23 22 22 21 21 21 21 20 20 19 20 20 20 20 20 19 19 18 18 17 17 16 16 14 14 13 13 12 12 12 11 11 11 10 9 9 8 7
10 10 9 9 9 9 9 9 11 13 15 17 18 20 21 21 21 22 22 22 22 22 23 23 23 23 23 23 22 22 22 21 21 21 20 20 20 21 21 21 20 20 19 18 18 18 17 17 16 15 14 14 13 13 13 12 12 11 11 10 10 9 8
10 10 10 9 8 8 8 8 8 10 12 13 14 17 20 21 21 21 22 21 21 22 22 22 23 24 23 23 23 23 23 22 22 22 21 21 21 21 21 21 21 21 20 19 19 19 18 17 17 16 16 15 14 14 14 13 13 12 12 11 11 10 9
10 10 9 9 8 8 8 8 8 9 11 12 12 13 16 19 20 20 21 21 21 22 22 22 23 23 23 23 23 23 23 23 22 22 22 22 22 22 22 22 22 21 21 21 20 20 19 19 18 17 17 16 16 15 15 14 14 13 13 12 12 11 11
10 10 9 8 8 8 8 8 9 9 10 11 12 12 14 17 18 19 20 21 22 22 21 22 22 23 24 24 24 24 23 23 23 23 23 23 22 22 22 22 22 22 22 21 21 20 20 20 19 19 18 18 17 17 16 16 15 14 14 13 13 12 12
11 10 10 9 8 8 8 8 9 9 10 10 11 12 13 14 16 18 19 20 22 22 22 22 22 22 23 24 24 24 24 24 24 23 23 23 23 23 23 23 23 22 22 22 22 21 21 20 20 20 19 19 19 18 18 17 16 16 15 15 14 14 13
11 11 10 9 9 8 8 9 9 9 10 10 11 12 13 13 14 16 18 20 21 22 22 22 22 22 22 23 24 24 24 24 24 24 24 24 24 23 23 23 23 23 23 23 23 22 22 21 21 21 21 20 20 19 19 18 18 17 17 16 16 15 14
12 12 11 11 10 9 9 9 9 9 10 10 11 12 13 13 14 14 16 18 20 22 22 22 22 22 23 23 23 24 24 25 24 24 24 25 25 24 24 24 24 24 23 23 23 23 23 23 22 22 22 22 21 21 20 20 19 19 18 18 17 17 16
12 12 12 11 10 10 10 10 10 10 10 11 11 11 12 13 14 14 15 16 18 20 22 22 22 23 23 24 24 24 24 25 25 25 25 25 25 25 25 24 24 24 24 24 24 24 24 23 23 23 23 23 22 22 21 21 20 20 20 19 19 19 18
13 12 12 12 11 11 11 11 11 11 11 12 12 12 12 12 13 14 15 16 17 18 20 21 22 23 23 24 25 25 25 25 25 25 25 25 26 26 26 25 25 25 25 25 25 24 24 24 24 24 24 24 23 23 23 22 22 21 21 20 20 20 19
14 13 13 13 13 12 12 12 12 12 12 13 13 13 13 13 13 13 14 16 17 18 19 21 22 22 23 24 25 25 25 25 25 26 26 26 26 26 26 26 26 26 26 26 26 25 25 25 25 25 25 25 25 24 24 24 23 23 23 22 21 21 20
14 14 14 14 14 14 14 13 13 13 13 14 14 14 14 14 14 14 14 15 17 18 19 20 22 22 22 23 24 25 26 26 26 26 27 27 27 27 27 27 27 27 27 27 27 27 26 26 26 26 26 26 26 26 25 25 25 25 24 24 24 23 22
15 15 15 15 14 14 14 14 14 14 14 15 16 16 16 16 16 15 15 15 16 18 19 20 21 22 22 23 24 25 26 26 26 26 26 27 28 28 27 27 27 28 28 28 28 28 28 28 27 27 27 27 27 27 27 26 26 26 26 26 25 25 24
16 16 15 15 15 15 15 15 15 15 15 16 16 17 17 17 17 17 17 16 17 17 18 19 20 21 22 23 24 24 25 26 26 26 26 27 28 28 28 28 28 28 28 28 29 29 29 29 28 28 28 28 28 28 28 28 28 27 27 27 27 26 26
17 17 16 16 16 15 15 15 16 16 16 16 17 17 17 18 18 19 18 18 18 17 18 19 20 20 21 23 24 24 25 25 26 26 26 27 28 28 29 29 29 29 29 29 29 29 29 29 29 29 29 29 29 29 29 29 29 28 28 28 28 27 27
19 19 18 18 17 17 16 16 16 16 16 17 17 17 17 18 18 18 19 19 19 18 18 19 19 20 21 22 23 24 24 24 25 26 26 27 28 28 29 29 30 30 29 29 29 29 29 30 30 30 30 30 30 30 29 29 29 29 29 29 29 28 28
21 21 21 20 20 19 19 18 18 18 18 18 18 18 18 18 18 18 19 19 19 19 19 19 20 20 20 21 22 24 25 25 25 26 26 27 28 29 29 29 30 30 30 30 30 30 30 30 30 30 30 30 30 30 30 30 29 29 29 29 30 29 29
24 24 23 23 23 22 22 21 21 20 20 19 19 19 19 19 20 20 20 20 20 20 20 20 20 20 21 21 22 23 24 25 26 26 27 28 28 29 29 30 30 30 30 31 31 30 30 30 30 30 30 30 30 30 30 30 30 30 30 30 30 29 29
26 26 26 26 25 25 24 24 23 23 23 22 21 21 20 21 21 21 21 21 21 22 22 21 21 21 21 22 22 22 24 25 26 26 27 28 29 29 30 30 30 30 30 30 31 31 31 30 30 30 30 30 30 30 30 30 30 30 30 30 30 30 29
27 27 27 27 27 27 27 27 27 26 25 25 24 23 23 22 22 22 22 22 22 23 23 23 23 22 22 22 23 23 23 24 26 26 27 28 29 30 30 30 30 29 28 29 30 30 30 30 30 30 30 30 30 30 30 30 30 30 30 31 31 30 30
29 29 29 29 29 29 29 29 29 29 28 28 27 26 25 25 24 24 24 24 24 24 24 24 25 25 24 24 24 24 24 24 25 26 27 28 29 30 31 30 29 29 28 28 28 28 29 30 30 30 30 30 30 30 30 30 30 30 30 31 31 31 30
31 31 31 31 31 31 31 31 31 31 31 30 30 29 29 28 27 26 26 25 25 25 25 25 26 26 26 26 26 26 26 26 26 26 27 28 30 31 31 30 29 29 30 29 28 28 29 29 29 30 30 30 30 30 30 30 30 30 30 31 31 31 31
32 32 33 33 33 33 33 33 33 33 33 33 32 32 31 31 31 30 29 28 28 27 27 27 27 28 28 28 28 27 27 27 27 28 28 28 29 30 30 30 29 29 29 30 30 30 30 30 29 30 30 30 31 31 31 31 31 31 31 31 31 31 31
34 34 34 34 35 35 35 35 35 36 36 35 35 34 34 34 34 33 33 32 31 30 29 29 29 29 29 29 29 29 29 29 29 29 29 29 29 29 29 30 30 29 30 30 31 31 31 31 30 30 30 30 30 31 31 31 32 32 32 32 32 32 32
35 35 36 36 36 36 37 37 37 38 38 38 37 37 37 37 37 36 36 35 34 33 32 31 31 31 31 31 30 30 30 30 30 30 30 30 30 29 29 29 30 30 31 31 31 31 31 31 31 31 30 30 30 31 31 31 31 32 33 33 33 33 33
35 36 36 37 38 38 38 39 39 39 40 40 40 40 39 39 39 39 39 38 37 36 35 35 34 33 33 32 32 32 32 31 31 31 31 31 30 30 30 29 29 30 30 31 31 31 31 31 31 31 31 31 31 31 31 31 31 31 32 33 33 33 33
35 36 37 38 38 39 40 40 41 41 41 42 42 42 42 41 42 42 41 41 40 39 39 38 37 36 35 35 34 34 33 33 33 32 32 32 31 31 31 30 29 29 30 31 31 32 32 32 32 32 32 32 32 31 31 31 31 31 30 31 32 32 33
36 36 37 38 38 39 40 41 42 42 42 43 43 43 43 43 44 44 43 43 42 42 41 41 40 39 38 37 37 36 35 35 34 34 33 33 32 32 32 31 31 30 30 31 32 33 33 33 33 34 33 33 32 32 31 31 30 30 30 30 30 31 31
37 38 38 39 39 40 40 41 42 42 43 44 44 44 44 45 45 45 45 45 44 44 43 43 42 42 41 40 39 39 38 37 36 35 34 34 33 33 32 32 31 31 31 31 33 33 33 33 34 34 33 32 32 31 30 30 30 30 30 30 29 29 29
38 39 40 40 40 41 41 41 42 43 44 44 44 45 46 46 46 46 46 46 46 46 45 45 44 44 43 42 41 40 40 39 39 37 36 35 35 34 34 33 33 33 32 32 33 34 34 34 34 34 33 32 32 31 30 29 29 29 29 29 30 30 29
39 40 41 41 42 42 43 43 43 44 44 44 45 45 46 47 47 47 47 47 47 47 46 46 45 45 45 44 43 42 41 41 41 40 39 38 37 36 36 36 35 35 35 34 34 35 36 37 37 37 35 34 33 32 31 31 30 29 29 29 29 29 29
39 40 41 42 43 44 44 45 45 45 46 45 45 46 47 47 48 48 48 48 48 48 48 47 47 46 46 45 45 44 43 43 43 43 42 41 39 38 38 38 37 37 36 36 36 36 37 38 38 39 38 38 36 35 35 35 34 33 32 32 31 30 30
39 41 41 43 44 45 45 46 47 47 47 47 46 47 47 48 48 49 49 49 49 50 50 49 48 48 47 46 46 46 45 45 44 44 44 43 42 40 39 39 39 38 37 37 37 37 37 37 38 38 38 38 38 38 37 37 37 36 36 35 34 33 33
Wind_Direction
207 206 204 206 208 208 208 208 208 208 208 208 206 206 206 206 207 208 210 211 209 208 207 206 206 207 207 208 209 209 208 207 209 209 209 208 208 207 207 205 204 202 200 200 200 200 199 197 196 197 195 194 195 196 195 193 190 187 183 179 175 171 170
209 210 208 210 211 212 213 211 209 208 208 207 207 206 206 206 207 209 211 212 211 210 209 207 207 208 208 209 210 210 209 209 209 210 210 210 208 208 208 208 206 204 203 202 202 203 203 202 201 201 200 199 199 200 199 199 197 194 191 186 182 177 176
211 213 216 219 218 217 217 213 210 211 209 207 207 207 207 207 207 209 212 213 212 212 211 210 209 209 209 210 210 211 211 211 211 211 211 211 209 209 210 210 209 207 206 206 206 206 206 206 206 205 204 203 203 203 203 202 201 200 197 194 189 184 182
212 213 215 220 222 223 222 216 211 211 212 211 210 209 209 208 208 210 212 214 214 213 213 212 211 211 211 211 211 211 212 212 212 213 213 212 211 210 211 211 211 210 208 208 209 210 210 210 210 209 208 207 206 205 205 205 204 203 201 200 198 193 190
215 213 212 213 216 220 223 220 215 212 212 212 211 210 210 209 209 211 212 213 214 214 214 214 214 214 213 212 213 212 212 213 214 214 214 212 211 211 212 213 212 212 211 210 211 211 212 212 213 212 211 209 209 208 206 206 206 205 204 205 204 201 197
219 217 214 211 211 213 216 217 215 214 213 212 212 212 212 211 210 211 212 212 214 213 214 215 216 216 216 215 215 214 213 213 214 215 215 214 212 212 213 214 214 214 214 213 213 212 213 214 215 216 214 212 211 210 209 208 208 208 207 208 209 208 205
218 219 219 215 213 212 212 212 211 211 211 213 214 212 212 213 212 212 212 213 214 213 214 217 217 217 217 217 217 217 215 215 215 215 216 215 213 213 213 214 215 215 215 215 215 214 214 215 216 217 216 215 213 212 211 211 210 211 211 211 212 213 212
215 218 220 218 214 210 212 214 209 207 209 213 216 214 213 214 214 214 214 214 215 214 215 218 217 217 217 218 219 219 218 217 216 216 217 217 216 214 214 215 215 216 217 217 217 216 216 216 217 218 218 217 216 215 214 213 213 214 214 215 215 216 217
215 217 218 216 213 209 208 211 209 207 210 215 218 216 215 216 217 218 216 214 214 214 216 217 217 218 219 220 222 222 221 220 219 218 218 218 218 216 215 215 216 217 218 218 219 219 218 218 219 219 219 218 219 218 217 217 216 217 218 218 219 219 220
217 219 218 213 210 207 206 206 208 210 214 217 218 217 216 217 219 220 216 213 214 216 217 218 218 219 220 221 222 223 222 222 221 220 220 220 220 218 217 217 217 218 219 220 221 221 220 220 221 221 220 220 220 221 221 220 220 220 221 221 222 222 223
215 218 220 217 212 207 205 206 209 214 217 220 222 221 219 218 219 220 218 217 218 218 219 220 220 219 220 220 222 222 222 222 222 222 222 222 221 220 219 219 218 219 220 221 222 223 223 222 222 222 222 222 222 223 223 223 223 223 223 223 224 224 224
214 217 222 223 221 215 211 210 212 216 219 222 226 226 224 222 221 222 222 222 222 221 222 224 223 221 221 221 221 221 222 222 222 222 223 224 223 222 221 221 220 220 221 222 223 224 225 225 224 224 224 223 223 224 225 225 225 226 225 225 225 225 225
215 219 223 226 228 226 222 218 217 219 222 224 227 228 228 226 225 224 223 224 225 225 225 226 226 224 223 222 222 222 223 223 223 223 224 225 225 224 223 223 222 222 222 223 224 225 226 227 226 226 225 225 225 225 226 227 227 228 228 227 227 227 227
217 221 226 229 232 233 232 229 225 224 225 226 229 230 231 231 229 226 224 224 226 227 227 228 228 227 226 224 224 224 224 224 224 224 225 226 227 227 226 225 225 224 224 224 225 226 227 228 228 228 227 227 226 226 227 228 229 229 229 229 229 229 230
220 223 226 230 234 236 236 235 233 231 230 230 231 233 233 235 235 232 230 228 227 227 228 229 229 229 228 227 226 226 226 226 225 226 227 227 228 229 229 228 227 227 226 226 227 228 228 228 229 230 229 229 228 228 228 229 230 231 231 230 230 231 232
223 226 228 230 233 236 238 239 238 236 235 235 236 237 237 237 237 237 236 233 230 228 229 230 230 230 230 229 229 228 228 227 227 228 229 229 230 230 231 230 230 230 230 229 229 230 230 230 230 231 231 231 231 230 230 231 232 232 232 232 233 233 235
227 229 231 232 233 235 238 241 241 240 240 240 240 240 241 240 239 238 238 237 234 232 231 231 231 231 231 229 229 228 228 228 228 230 231 231 231 231 231 232 232 232 232 232 232 231 231 231 232 232 232 233 233 233 233 234 234 233 233 234 235 236 238
229 232 234 235 237 237 239 241 243 244 245 244 243 243 244 244 242 239 239 240 238 236 234 232 231 231 231 229 228 228 229 229 229 230 231 231 232 232 232 233 233 234 234 234 234 234 233 233 233 233 233 234 235 235 235 236 236 235 235 236 237 238 240
231 233 235 237 239 239 240 241 243 245 246 245 245 245 245 244 243 241 241 242 240 238 236 235 232 231 232 231 231 231 230 230 230 231 231 232 232 233 234 234 234 235 235 235 235 235 235 235 234 234 234 235 236 236 237 238 238 237 237 238 239 239 241
232 234 235 237 239 240 242 243 244 246 247 246 245 245 244 243 242 240 241 241 241 239 238 237 234 233 233 233 233 233 233 231 231 232 233 233 233 233 234 235 235 236 237 237 237 237 237 236 236 236 236 236 236 238 238 239 239 238 238 239 240 241 242
233 235 236 237 239 241 243 245 247 249 249 248 247 245 245 244 243 241 241 241 241 241 240 239 237 235 236 235 234 234 235 235 234 234 234 234 234 234 235 235 236 237 237 238 237 237 237 237 237 238 238 237 238 238 239 240 240 240 239 240 241 242 243
233 235 237 239 240 242 243 245 248 251 251 249 249 248 247 247 245 244 243 242 241 242 241 240 238 238 239 238 237 237 237 237 237 237 236 235 235 235 235 236 236 237 238 238 238 237 237 238 238 239 239 239 239 240 240 241 240 240 240 241 241 242 244
236 236 238 239 241 243 243 244 246 250 251 250 250 249 249 248 247 246 245 243 242 243 243 242 240 240 241 241 241 240 239 238 238 238 238 237 236 236 236 236 236 236 237 238 238 237 237 238 239 239 240 240 240 241 241 242 241 241 241 241 242 243 245
239 240 241 242 243 244 244 245 247 249 250 250 250 250 250 249 248 248 247 246 244 244 244 244 243 242 242 243 242 242 241 240 239 239 239 239 239 238 238 237 236 235 235 236 237 237 237 238 238 239 240 241 241 241 242 243 242 241 241 242 242 243 245
242 243 244 245 246 246 246 247 248 248 248 248 249 250 251 251 250 249 249 248 247 246 245 245 245 244 244 244 244 244 243 242 242 241 241 241 241 242 241 240 239 237 237 236 237 237 238 238 239 240 240 241 242 242 242 243 243 242 241 242 242 243 245
245 245 246 246 247 248 249 250 249 247 247 248 249 250 250 250 250 249 249 249 249 248 247 247 246 245 245 246 246 246 246 245 244 243 242 242 243 244 244 243 242 242 242 242 242 241 240 240 240 241 241 242 242 242 242 244 244 243 242 242 242 243 244
248 248 248 248 249 249 250 250 249 249 249 248 249 249 249 249 249 249 249 249 249 249 249 249 249 248 247 246 246 247 248 247 247 246 245 243 244 245 247 247 246 245 245 246 246 245 244 244 243 243 242 242 243 243 243 243 244 244 242 242 242 243 244
251 251 251 250 251 250 250 250 250 251 250 249 249 249 248 248 249 249 248 248 249 249 250 250 250 250 249 248 247 247 248 248 248 248 248 247 247 248 249 250 249 248 247 246 246 245 245 246 247 246 245 244 244 244 243 243 244 244 243 242 242 243 244
253 253 253 252 252 251 251 251 251 252 251 251 250 249 248 249 249 249 248 248 248 249 249 250 250 250 250 250 249 248 248 248 249 249 249 250 250 250 250 250 249 248 247 246 245 245 244 244 246 247 247 247 246 246 245 244 244 244 243 242 242 243 244
254 254 254 254 253 253 252 252 252 252 252 251 251 250 250 249 249 249 249 249 249 249 249 249 249 250 250 250 250 250 249 248 248 249 250 250 251 251 251 250 249 248 248 248 246 245 245 244 244 245 246 247 248 247 246 245 244 244 243 242 242 243 243
254 255 255 255 255 255 254 253 253 253 253 252 251 251 250 250 249 249 249 249 249 249 249 249 249 249 249 250 250 251 250 249 249 249 250 250 251 251 251 250 248 248 248 248 246 246 246 245 244 244 245 246 247 248 247 246 244 243 243 242 242 242 243
255 255 256 256 257 256 256 255 254 253 253 253 252 251 251 250 250 250 250 249 249 249 249 250 249 249 249 249 249 250 250 251 251 250 250 250 250 249 249 249 249 247 247 246 245 245 245 245 244 244 245 245 246 247 247 246 245 243 242 242 242 243 243
256 256 257 257 257 257 257 256 255 254 253 254 253 252 252 251 250 250 250 250 249 249 249 250 250 249 249 249 249 249 249 250 251 251 251 251 250 249 248 248 248 247 246 246 245 244 244 245 244 243 244 244 245 245 245 245 245 244 243 243 242 243 243
258 258 259 258 258 258 257 256 255 255 254 253 253 253 253 252 251 251 250 250 250 250 249 249 249 249 249 249 248 248 248 249 250 251 251 252 250 249 248 247 246 246 246 246 245 244 244 245 245 244 244 245 246 246 246 244 244 244 244 243 242 241 242
260 260 260 260 259 258 257 256 256 255 255 254 254 253 253 253 252 251 251 250 250 250 249 249 249 249 249 249 248 247 247 248 249 249 250 251 251 250 249 247 246 246 247 247 247 246 246 246 247 246 247 249 249 249 247 245 242 243 245 246 245 242 241
262 262 261 260 260 259 258 257 257 256 256 255 254 254 253 253 252 251 251 250 250 249 249 249 248 248 248 248 248 247 246 246 247 248 249 250 251 251 250 249 247 246 247 248 249 248 248 247 247 247 248 250 250 249 248 246 245 245 247 249 250 247 244
263 263 262 262 261 260 259 258 258 257 256 256 255 254 254 253 252 252 251 250 249 249 249 248 248 248 247 247 247 247 246 246 247 248 248 249 250 251 251 251 249 247 246 247 249 250 249 248 248 248 248 249 249 249 249 248 248 248 248 249 251 251 249
265 265 264 263 262 260 260 259 258 258 257 256 256 255 254 253 252 252 251 250 249 248 248 247 247 247 247 247 246 246 247 246 246 247 248 248 249 250 250 251 250 249 248 247 247 248 249 248 248 248 248 248 248 249 249 248 248 249 249 249 250 251 251